TJS-9

Last updated on Fri Dec 19 2025 00:02:53 GMT+0000 (Coordinated Universal Time)

1 50574U 21135A 25352.65249522 -.00000273 00000+0 00000+0 0 9996 2 50574 0.0232 42.8544 0000987 180.5790 236.2483 1.00271578 14623
UTC large
Height (km)
Speed (km/s)
/
Latitude / Longitude
Inclination (degrees)
Orbital Period (minutes)
Azimuth
Elevation
Range (km)
Doppler Factor

Next 0 passes for location: London (51.5072 / 0.1276)

Sorry there are no passes over London.